AirNav   Air Wisconsin Up To $57,000 Bonus
 
 1474 users online  

4NC0 Boyd's Hawks Creek Airport
Mocksville, North Carolina, USA

GOING TO MOCKSVILLE?


FAA INFORMATION EFFECTIVE 16 JUNE 2022

Location

FAA Identifier: 4NC0
Lat/Long: 35-53-56.5800N 080-37-03.5600W
35-53.943000N 080-37.059333W
35.8990500,-80.6176556
(estimated)
Elevation: 815 ft. / 248 m (estimated)
Variation: 06W (1985)
From city: 3 miles W of MOCKSVILLE, NC
Time zone: UTC -4 (UTC -5 during Standard Time)
Zip code: 27028

Airport Operations

Airport use: Private use. Permission required prior to landing
Activation date: 03/1985
Control tower: no
ARTCC: ATLANTA CENTER
FSS: RALEIGH FLIGHT SERVICE STATION
Attendance: UNATNDD
Wind indicator: yes
Segmented circle: no

Airport Communications

WX AWOS-3 at RUQ (16 nm S): 118.175 (704-637-6197)
WX AWOS-3 at EXX (17 nm SE): 119.825 (336-956-2967)
WX AWOS-3 at SVH (18 nm SW): 119.225 (704-873-1978)

Airport Services

Runway Information

Runway 11/29

Dimensions: 2000 x 60 ft. / 610 x 18 m
Surface: turf
RUNWAY 11  RUNWAY 29
Traffic pattern: leftleft
Obstructions: 30 ft. trees, 100 ft. from runway20 ft. pline, 800 ft. from runway

Airport Ownership and Management from official FAA records

Ownership: Privately-owned
Owner: DON J. BOYD
196 MCALLISTER RD
MOCKSVILLE, NC 27028
Phone 336-492-2080
Manager: DON J. BOYD
196 MCALLISTER RD
MOCKSVILLE, NC 27028
Phone 336-408-0785

Airport Operational Statistics

Aircraft based on the field: 3
Single engine airplanes: 3
    

Additional Remarks

FOR CD CTC ATLANTA ARTCC AT 770-210-7692.

Instrument Procedures

There are no published instrument procedures at 4NC0.

Some nearby airports with instrument procedures:

8A7 - Twin Lakes Airport (8 nm E)
KRUQ - Mid-Carolina Regional Airport (16 nm S)
KEXX - Davidson County Airport (17 nm SE)
KSVH - Statesville Regional Airport (18 nm SW)
14A - Lake Norman Airpark (22 nm SW)
 
Loc | Ops | Rwys | IFR | FBO | Links
Com | Nav | Svcs | Stats | Notes
Area around 4NC0 (Boyd's Hawks Creek Airport)
 
Road maps at: MapQuest Bing Google
 
Aerial photo
WARNING: Photo may not be current or correct
Aerial photo of 4NC0 (Boyd's Hawks Creek Airport)
Do you have a better or more recent aerial photo of Boyd's Hawks Creek Airport that you would like to share? If so, please send us your photo.

 
Sectional chart

 
Airport distance calculator
Flying to Boyd's Hawks Creek Airport? Find the distance to fly.

From to 4NC0

Sunrise and sunset
Times for 01-Jul-2022
 Local
(UTC-4)
 Zulu
(UTC)
Morning civil twilight05:4109:41
Sunrise06:1110:11
Sunset20:4200:42
Evening civil twilight21:1201:12

Current date and time
Zulu (UTC)  01-Jul-2022 18:32:59
Local (UTC-4)  01-Jul-2022 14:32:59
 
METAR
KRUQ 
16nm S 
011815Z AUTO 17003KT 10SM SCT039 29/20 A3011 RMK AO2 T02920196
KEXX 
17nm SE 
011815Z AUTO 17003KT 10SM CLR 30/18 A3010 RMK AO2 T02990183
KSVH 
18nm SW 
011815Z AUTO 17005KT 10SM BKN039 30/20 A3010 RMK AO2 T02980199
KINT 
24nm NE 
011754Z VRB04KT 10SM FEW045 31/19 A3012 RMK AO2 SLP187 T03060194 10311 20244 58021
KUKF 
30nm NW 
011815Z AUTO 15004KT 10SM SCT047 31/18 A3016 RMK AO2
KJQF 
31nm S 
011750Z 21007KT 10SM SCT031 BKN100 30/21 A3015
TAF
KINT 
24nm NE 
011739Z 0118/0218 17007KT P6SM VCSH SCT035 BKN150 TEMPO 0119/0123 BKN035 FM012300 18003KT P6SM SCT025 BKN180 TEMPO 0203/0207 BKN025 FM020700 21004KT 4SM BR BKN005 FM021400 22005KT P6SM BKN012 FM021600 22005KT P6SM BKN030
NOTAMs
Click for the latest NOTAMs
NOTAMs are issued by the DoD/FAA and will open in a separate window not controlled by AirNav.

 

 
 

Would you like to see your business listed on this page?

 If your business provides an interesting product or service to pilots, flight crews, aircraft, or users of the Boyd's Hawks Creek Airport, you should consider listing it here.  To start the listing process, click on the button below
 
Add a business
 

Other Pages about Boyd's Hawks Creek Airport

Update a link
 
Copyright © AirNav, LLC. All rights reserved. Privacy Policy  Contact